This demonstration page uses our WeatherBlox Daily Observations layout. Learn more.

Left ArrowRight Arrow

31.84235, -102.49876

Hourly Observations for May 10, 2015

Temp ( °F °C ) Dew Point ( °F °C ) Humidity (%) Winds ( mph kmh ) Pressure ( in mb ) Visibility ( mi km ) Precip ( " mm )
12:53 am 00:53 Clear 67 19.4 19 -7.2 16 16 NNW 14 22 29.65 1004 10 16 0.00 0.00
1:53 am 01:53 Clear 64 17.8 21 -6.1 19 19 N 8 13 29.70 1006 10 16 0.00 0.00
2:53 am 02:53 Cloudy 64 17.8 23 -5 21 21 NNW 6 9 29.71 1006 10 16 0.00 0.00
3:53 am 03:53 Mostly Cloudy 60 15.6 22 -5.6 23 23 ESE 7 11 29.72 1007 10 16 0.00 0.00
4:53 am 04:53 Clear 62 16.7 17 -8.3 17 17 N 6 9 29.74 1007 10 16 0.00 0.00
5:53 am 05:53 Mostly Cloudy 61 16.1 19 -7.2 20 20 N 9 15 29.74 1007 10 16 0.00 0.00
6:53 am 06:53 Cloudy 62 16.7 24 -4.4 23 23 N 14 22 29.76 1008 10 16 0.00 0.00
7:53 am 07:53 Partly Cloudy 59 15 27 -2.8 29 29 N 10 17 29.80 1009 10 16 0.00 0.00
8:53 am 08:53 Mostly Cloudy 65 18.3 28 -2.2 25 25 N 14 22 29.82 1010 10 16 0.00 0.00
9:53 am 09:53 Sunny 71 21.7 26 -3.3 19 19 N 13 20 29.83 1010 10 16 0.00 0.00
10:53 am 10:53 Sunny 75 23.9 23 -5 14 14 N 10 17 29.83 1010 10 16 0.00 0.00
11:53 am 11:53 Sunny 75 23.9 21 -6.1 13 13 VRB 3 6 29.81 1010 10 16 0.00 0.00
12:53 pm 12:53 Sunny 77 25 21 -6.1 12 12 VRB 3 6 29.80 1009 10 16 0.00 0.00
1:53 pm 13:53 Sunny 80 26.7 20 -6.7 10 10 W 7 11 29.78 1009 10 16 0.00 0.00
2:53 pm 14:53 Sunny with Light Rain 83 28.3 19 -7.2 9 9 VRB 7 11 29.76 1008 10 16 0.00 0.03
3:53 pm 15:53 Sunny with Light Rain 84 28.9 16 -8.9 8 8 W 13 20 29.76 1008 10 16 0.00 0.03
4:53 pm 16:53 Sunny 84 28.9 16 -8.9 8 8 W 18 30 29.75 1008 10 16 0.00 0.03
5:53 pm 17:53 Sunny 83 28.3 16 -8.9 8 8 SW 8 13 29.75 1008 10 16 0.00 0.03
6:26 pm 18:26 Sunny with Light Rain 83 28.3 14 -10 7 7 W 10 17 29.68 1005 10 16 0.00 0.03
6:53 pm 18:53 Sunny 82 27.8 13 -10.6 7 7 W 6 9 29.75 1008 10 16 0.00 0.03
7:53 pm 19:53 Sunny 81 27.2 16 -8.9 9 9 WNW 9 15 29.78 1008 10 16 0.00 0.03
8:53 pm 20:53 Clear 73 22.8 19 -7.2 13 13 N 7 11 29.80 1009 10 16 0.00 0.00
9:53 pm 21:53 Clear 67 19.4 21 -6.1 17 17 NE 8 13 29.82 1010 10 16 0.00 0.00
10:53 pm 22:53 Clear 65 18.3 21 -6.1 19 19 NE 10 17 29.84 1010 10 16 0.00 0.00
11:53 pm 23:53 Clear 61 16.1 21 -6.1 21 21 E 10 17 29.86 1011 10 16 0.00 0.00

Powered by AerisWeather